Location: Mt. Bigelow
(32.4165°N, 110.7345°W)
Time: 14:24:11
(UTC-07:00)

N. Korean satellite - Pass Details

Date: 25 February 2019
Orbit: 455 x 511 km, 97.2° (Epoch: 18 March)

Event Time Altitude Azimuth Distance (km) Brightness Sun altitude
Rises 18:37:06 0° 198° (SSW) 2,573 10.6 -5.0°
Reaches altitude 10° 18:39:37 10° 216° (SW) 1,686 10.0 -5.5°
Maximum altitude 18:42:19 20° 264° (W) 1,193 9.9 -6.1°
Drops below altitude 10° 18:45:00 10° 312° (NW) 1,672 9.9 -6.6°
Sets 18:47:29 0° 330° (NNW) 2,545 10.6 -7.2°
